Location: Pallagorio
(39.3000°N, 16.9000°E)
Time: 18:19:51
(UTC+00:00)

Meteor 2-15 - Pass Details

Date: 24 January 2021
Orbit: 936 x 955 km, 82.5° (Epoch: 02 March)

Event Time Altitude Azimuth Distance (km) Brightness Sun altitude
Rises 17:38:42 0° 355° (N) 3,642 7.4 -18.4°
Reaches altitude 10° 17:41:15 10° 359° (N) 2,692 6.7 -18.8°
Maximum altitude 17:47:21 61° 80° (E) 1,073 4.4 -20.0°
Drops below altitude 10° 17:53:23 10° 160° (SSE) 2,670 6.7 -21.2°
Sets 17:55:54 0° 164° (SSE) 3,609 7.4 -21.6°
